| time (UTC) | temp F | wind direction | speed MPH | gust MPH | rain 1hr in | rain 24hr in | rain mn in | humidity % | barometer mb |
| 20260507202028 | 64 | 315 | 4.0 | 15.0 | 0.00 | 0.17 | 0.17 | 37 | 1009.1 |
| 20260507201529 | 64 | 317 | 7.0 | 14.0 | 0.00 | 0.17 | 0.17 | 36 | 1009.3 |
| 20260507201028 | 64 | 319 | 3.0 | 10.0 | 0.00 | 0.17 | 0.17 | 35 | 1009.3 |
| 20260507200528 | 64 | 319 | 5.0 | 12.0 | 0.00 | 0.17 | 0.17 | 35 | 1009.2 |
| 20260507200027 | 64 | 319 | 5.0 | 14.0 | 0.00 | 0.17 | 0.17 | 35 | 1009.3 |
| 20260507195526 | 64 | 317 | 6.0 | 14.0 | 0.00 | 0.17 | 0.17 | 35 | 1009.2 |
| 20260507195026 | 64 | 318 | 6.0 | 12.0 | 0.00 | 0.17 | 0.17 | 35 | 1009.3 |
| 20260507194526 | 65 | 317 | 5.0 | 11.0 | 0.00 | 0.17 | 0.17 | 35 | 1009.2 |
| 20260507194025 | 64 | 316 | 2.0 | 12.0 | 0.00 | 0.17 | 0.17 | 36 | 1009.2 |
| 20260507193527 | 65 | 316 | 5.0 | 12.0 | 0.00 | 0.17 | 0.17 | 35 | 1009.4 |
| 20260507193025 | 64 | 311 | 7.0 | 13.0 | 0.00 | 0.17 | 0.17 | 36 | 1009.3 |
| 20260507192524 | 64 | 311 | 1.0 | 13.0 | 0.00 | 0.17 | 0.17 | 35 | 1009.4 |
| 20260507192024 | 64 | 311 | 9.0 | 13.0 | 0.00 | 0.17 | 0.17 | 36 | 1009.5 |
| 20260507191524 | 64 | 313 | 2.0 | 11.0 | 0.00 | 0.17 | 0.17 | 35 | 1009.7 |
| 20260507191023 | 64 | 313 | 5.0 | 17.0 | 0.00 | 0.17 | 0.17 | 37 | 1009.7 |
| 20260507190523 | 63 | 313 | 7.0 | 19.0 | 0.00 | 0.17 | 0.17 | 36 | 1009.7 |
| 20260507190023 | 63 | 313 | 10.0 | 19.0 | 0.00 | 0.17 | 0.17 | 36 | 1009.7 |
| 20260507185524 | 63 | 317 | 5.0 | 13.0 | 0.00 | 0.17 | 0.17 | 37 | 1009.7 |
| 20260507185022 | 63 | 316 | 8.0 | 16.0 | 0.00 | 0.17 | 0.17 | 36 | 1009.8 |
| 20260507184522 | 63 | 317 | 6.0 | 19.0 | 0.00 | 0.17 | 0.17 | 37 | 1009.9 |
| 20260507184022 | 63 | 318 | 10.0 | 19.0 | 0.00 | 0.17 | 0.17 | 37 | 1009.9 |
| 20260507183522 | 63 | 330 | 5.0 | 12.0 | 0.00 | 0.17 | 0.17 | 39 | 1009.9 |
| 20260507183021 | 64 | 330 | 7.0 | 13.0 | 0.00 | 0.17 | 0.17 | 38 | 1010.0 |
| 20260507182521 | 63 | 330 | 4.0 | 14.0 | 0.00 | 0.17 | 0.17 | 39 | 1010.1 |
| 20260507182022 | 63 | 331 | 5.0 | 14.0 | 0.00 | 0.17 | 0.17 | 37 | 1010.1 |
| 20260507181527 | 63 | 333 | 4.0 | 14.0 | 0.00 | 0.17 | 0.17 | 39 | 1010.4 |
| 20260507181021 | 64 | 336 | 6.0 | 16.0 | 0.00 | 0.17 | 0.17 | 39 | 1010.5 |
| 20260507180523 | 63 | 338 | 6.0 | 16.0 | 0.00 | 0.17 | 0.17 | 39 | 1010.4 |
| 20260507180024 | 62 | 310 | 2.0 | 11.0 | 0.00 | 0.20 | 0.17 | 38 | 1010.6 |
| 20260507175519 | 62 | 309 | 5.0 | 13.0 | 0.00 | 0.20 | 0.17 | 38 | 1010.7 |
| 20260507175019 | 62 | 309 | 5.0 | 15.0 | 0.00 | 0.20 | 0.17 | 37 | 1010.7 |
| 20260507174520 | 63 | 308 | 6.0 | 19.0 | 0.00 | 0.20 | 0.17 | 40 | 1010.6 |
| 20260507174018 | 62 | 331 | 3.0 | 12.0 | 0.00 | 0.20 | 0.17 | 39 | 1010.7 |
| 20260507173518 | 62 | 331 | 3.0 | 12.0 | 0.00 | 0.20 | 0.17 | 40 | 1010.7 |
| 20260507173029 | 62 | 329 | 7.0 | 14.0 | 0.00 | 0.20 | 0.17 | 41 | 1010.6 |
| 20260507172517 | 62 | 333 | 6.0 | 11.0 | 0.00 | 0.20 | 0.17 | 39 | 1010.8 |
| 20260507172017 | 63 | 332 | 5.0 | 10.0 | 0.00 | 0.20 | 0.17 | 40 | 1010.8 |
| 20260507171516 | 62 | 333 | 2.0 | 9.0 | 0.00 | 0.20 | 0.17 | 42 | 1010.7 |
| 20260507171015 | 62 | 333 | 5.0 | 13.0 | 0.00 | 0.20 | 0.17 | 42 | 1011.1 |
| 20260507170514 | 61 | 331 | 6.0 | 13.0 | 0.00 | 0.20 | 0.17 | 43 | 1011.0 |
| 20260507170016 | 61 | 329 | 5.0 | 14.0 | 0.00 | 0.20 | 0.17 | 45 | 1011.1 |
| 20260507165512 | 62 | 330 | 6.0 | 14.0 | 0.00 | 0.20 | 0.17 | 48 | 1011.1 |
| 20260507165011 | 61 | 327 | 4.0 | 11.0 | 0.00 | 0.20 | 0.17 | 49 | 1011.2 |
| 20260507164510 | 60 | 327 | 3.0 | 12.0 | 0.00 | 0.20 | 0.17 | 48 | 1011.3 |
| 20260507164011 | 61 | 327 | 5.0 | 12.0 | 0.00 | 0.20 | 0.17 | 49 | 1011.2 |
| 20260507163509 | 60 | 324 | 3.0 | 12.0 | 0.00 | 0.20 | 0.17 | 51 | 1011.4 |
| 20260507163011 | 61 | 324 | 6.0 | 13.0 | 0.00 | 0.20 | 0.17 | 51 | 1011.5 |
| 20260507162510 | 60 | 322 | 4.0 | 15.0 | 0.00 | 0.20 | 0.17 | 52 | 1011.5 |
| 20260507162009 | 61 | 322 | 5.0 | 15.0 | 0.00 | 0.20 | 0.17 | 51 | 1011.7 |
| 20260507161507 | 60 | 322 | 5.0 | 14.0 | 0.00 | 0.20 | 0.17 | 52 | 1011.8 |
| 20260507161007 | 60 | 327 | 5.0 | 13.0 | 0.00 | 0.20 | 0.17 | 55 | 1011.7 |
| 20260507160508 | 60 | 327 | 7.0 | 13.0 | 0.00 | 0.20 | 0.17 | 54 | 1011.8 |
| 20260507160006 | 61 | 331 | 2.0 | 10.0 | 0.00 | 0.20 | 0.17 | 58 | 1011.9 |
| 20260507155505 | 58 | 331 | 3.0 | 13.0 | 0.00 | 0.20 | 0.17 | 58 | 1012.0 |
| 20260507155006 | 58 | 329 | 5.0 | 9.0 | 0.00 | 0.20 | 0.17 | 58 | 1012.2 |
| 20260507154504 | 59 | 329 | 2.0 | 11.0 | 0.00 | 0.20 | 0.17 | 58 | 1012.2 |
| 20260507154004 | 59 | 329 | 6.0 | 12.0 | 0.00 | 0.20 | 0.17 | 58 | 1012.2 |
| 20260507153504 | 58 | 331 | 6.0 | 13.0 | 0.00 | 0.20 | 0.17 | 60 | 1012.3 |
| 20260507153003 | 59 | 320 | 5.0 | 17.0 | 0.00 | 0.20 | 0.17 | 61 | 1012.3 |
| 20260507152503 | 59 | 319 | 3.0 | 17.0 | 0.00 | 0.20 | 0.17 | 60 | 1012.3 |
| 20260507152003 | 59 | 323 | 6.0 | 13.0 | 0.00 | 0.20 | 0.17 | 62 | 1012.4 |
| 20260507151501 | 58 | 323 | 6.0 | 13.0 | 0.00 | 0.20 | 0.17 | 60 | 1012.4 |
| 20260507151101 | 58 | 325 | 2.0 | 10.0 | 0.00 | 0.20 | 0.17 | 65 | 1012.5 |
| 20260507150600 | 57 | 325 | 3.0 | 10.0 | 0.00 | 0.20 | 0.17 | 68 | 1012.5 |
| 20260507150100 | 56 | 325 | 4.0 | 9.0 | 0.00 | 0.20 | 0.17 | 68 | 1012.7 |
| 20260507145600 | 57 | 325 | 4.0 | 10.0 | 0.00 | 0.20 | 0.17 | 69 | 1012.8 |
| 20260507145101 | 57 | 325 | 3.0 | 11.0 | 0.00 | 0.20 | 0.17 | 68 | 1012.9 |
| 20260507144558 | 57 | 325 | 6.0 | 13.0 | 0.00 | 0.20 | 0.17 | 68 | 1012.9 |
| 20260507144101 | 58 | 321 | 5.0 | 11.0 | 0.00 | 0.20 | 0.17 | 68 | 1012.9 |
| 20260507143557 | 57 | 322 | 6.0 | 14.0 | 0.00 | 0.20 | 0.17 | 69 | 1012.5 |
| 20260507143101 | 56 | 320 | 5.0 | 17.0 | 0.00 | 0.20 | 0.17 | 70 | 1012.5 |
| 20260507142556 | 56 | 324 | 8.0 | 15.0 | 0.00 | 0.20 | 0.17 | 70 | 1012.3 |
| 20260507142055 | 56 | 327 | 6.0 | 15.0 | 0.00 | 0.20 | 0.17 | 70 | 1012.3 |
| 20260507141556 | 56 | 315 | 7.0 | 17.0 | 0.00 | 0.20 | 0.17 | 70 | 1012.3 |
| 20260507141055 | 57 | 313 | 4.0 | 17.0 | 0.00 | 0.20 | 0.17 | 71 | 1012.3 |
| 20260507140555 | 57 | 319 | 2.0 | 12.0 | 0.00 | 0.20 | 0.17 | 74 | 1012.2 |
| 20260507140056 | 56 | 319 | 7.0 | 13.0 | 0.00 | 0.20 | 0.17 | 73 | 1012.3 |
| 20260507135553 | 56 | 322 | 5.0 | 13.0 | 0.00 | 0.20 | 0.17 | 74 | 1012.3 |
| 20260507135053 | 56 | 325 | 5.0 | 12.0 | 0.00 | 0.20 | 0.17 | 75 | 1012.3 |
| 20260507134554 | 55 | 326 | 4.0 | 9.0 | 0.00 | 0.20 | 0.17 | 76 | 1012.2 |
| 20260507134051 | 55 | 326 | 3.0 | 9.0 | 0.00 | 0.20 | 0.17 | 78 | 1012.3 |
| 20260507133552 | 55 | 326 | 3.0 | 13.0 | 0.00 | 0.20 | 0.17 | 78 | 1012.2 |
| 20260507133106 | 54 | 325 | 5.0 | 15.0 | 0.00 | 0.20 | 0.17 | 78 | 1012.1 |
| 20260507132550 | 54 | 320 | 5.0 | 12.0 | 0.00 | 0.20 | 0.17 | 81 | 1012.2 |
| 20260507132050 | 54 | 313 | 5.0 | 12.0 | 0.00 | 0.20 | 0.17 | 82 | 1012.2 |
| 20260507131554 | 53 | 313 | 3.0 | 10.0 | 0.00 | 0.20 | 0.17 | 82 | 1012.3 |
| 20260507131053 | 53 | 312 | 5.0 | 11.0 | 0.00 | 0.20 | 0.17 | 83 | 1012.5 |
| 20260507130549 | 53 | 312 | 5.0 | 11.0 | 0.00 | 0.20 | 0.17 | 83 | 1012.5 |
| 20260507130105 | 52 | 313 | 3.0 | 9.0 | 0.00 | 0.20 | 0.17 | 84 | 1012.6 |
| 20260507125549 | 52 | 313 | 4.0 | 11.0 | 0.00 | 0.20 | 0.17 | 84 | 1012.6 |
| 20260507125048 | 52 | 313 | 3.0 | 11.0 | 0.00 | 0.20 | 0.17 | 85 | 1012.6 |
| 20260507124548 | 52 | 313 | 3.0 | 10.0 | 0.00 | 0.20 | 0.17 | 85 | 1012.5 |
| 20260507124048 | 51 | 312 | 3.0 | 9.0 | 0.00 | 0.20 | 0.17 | 85 | 1012.4 |
| 20260507123548 | 51 | 312 | 4.0 | 9.0 | 0.00 | 0.20 | 0.17 | 86 | 1012.4 |
| 20260507123051 | 51 | 312 | 3.0 | 6.0 | 0.00 | 0.20 | 0.17 | 86 | 1012.4 |
| 20260507122547 | 51 | 312 | 2.0 | 11.0 | 0.00 | 0.20 | 0.17 | 86 | 1012.3 |
| 20260507122047 | 51 | 312 | 4.0 | 11.0 | 0.00 | 0.20 | 0.17 | 86 | 1012.3 |
| 20260507121558 | 51 | 312 | 3.0 | 9.0 | 0.00 | 0.20 | 0.17 | 87 | 1012.3 |
| 20260507121046 | 51 | 312 | 3.0 | 9.0 | 0.00 | 0.20 | 0.17 | 88 | 1012.1 |
| 20260507120544 | 51 | 312 | 3.0 | 9.0 | 0.00 | 0.20 | 0.17 | 88 | 1012.1 |
| 20260507120054 | 51 | 312 | 2.0 | 8.0 | 0.00 | 0.20 | 0.17 | 88 | 1012.2 |
| 20260507115544 | 51 | 312 | 3.0 | 5.0 | 0.00 | 0.20 | 0.17 | 89 | 1012.1 |
| 20260507115043 | 51 | 312 | 1.0 | 8.0 | 0.00 | 0.20 | 0.17 | 89 | 1012.1 |
| 20260507114624 | 51 | 312 | 4.0 | 8.0 | 0.00 | 0.20 | 0.17 | 89 | 1012.1 |
| 20260507114042 | 51 | 312 | 3.0 | 8.0 | 0.00 | 0.20 | 0.17 | 90 | 1012.0 |
| 20260507113545 | 51 | 312 | 1.0 | 10.0 | 0.00 | 0.20 | 0.17 | 90 | 1011.9 |
| 20260507113041 | 51 | 312 | 3.0 | 10.0 | 0.00 | 0.20 | 0.17 | 91 | 1011.8 |
| 20260507112541 | 50 | 312 | 2.0 | 9.0 | 0.00 | 0.20 | 0.17 | 91 | 1011.8 |
| 20260507112041 | 50 | 311 | 2.0 | 8.0 | 0.00 | 0.20 | 0.17 | 91 | 1011.6 |
| 20260507111540 | 50 | 311 | 1.0 | 8.0 | 0.00 | 0.20 | 0.17 | 92 | 1011.7 |
| 20260507111040 | 50 | 311 | 2.0 | 9.0 | 0.00 | 0.20 | 0.17 | 92 | 1011.9 |
| 20260507110540 | 50 | 311 | 4.0 | 9.0 | 0.01 | 0.20 | 0.17 | 93 | 1012.0 |
| 20260507110039 | 50 | 311 | 2.0 | 6.0 | 0.01 | 0.20 | 0.17 | 93 | 1011.7 |
| 20260507105537 | 50 | 311 | 1.0 | 6.0 | 0.01 | 0.20 | 0.17 | 93 | 1011.7 |
| 20260507105039 | 50 | 311 | 2.0 | 6.0 | 0.01 | 0.20 | 0.17 | 93 | 1011.7 |
| 20260507104537 | 50 | 311 | 2.0 | 4.0 | 0.01 | 0.20 | 0.17 | 93 | 1011.5 |
| 20260507104037 | 50 | 311 | 0.0 | 4.0 | 0.01 | 0.20 | 0.17 | 93 | 1011.5 |
| 20260507103536 | 50 | 311 | 1.0 | 5.0 | 0.01 | 0.20 | 0.17 | 93 | 1011.6 |
| 20260507103036 | 50 | 311 | 1.0 | 5.0 | 0.01 | 0.20 | 0.17 | 93 | 1011.5 |
| 20260507102536 | 50 | 311 | 2.0 | 8.0 | 0.01 | 0.20 | 0.17 | 93 | 1011.6 |
| 20260507102040 | 50 | 311 | 3.0 | 6.0 | 0.01 | 0.20 | 0.17 | 93 | 1011.5 |
| 20260507101537 | 50 | 311 | 1.0 | 3.0 | 0.01 | 0.20 | 0.17 | 93 | 1011.1 |
| 20260507101034 | 50 | 311 | 1.0 | 6.0 | 0.01 | 0.20 | 0.17 | 93 | 1011.1 |
| 20260507100535 | 50 | 311 | 1.0 | 8.0 | 0.00 | 0.19 | 0.16 | 93 | 1011.4 |
| 20260507100035 | 50 | 309 | 2.0 | 5.0 | 0.00 | 0.19 | 0.16 | 93 | 1011.1 |
| 20260507095533 | 50 | 309 | 1.0 | 6.0 | 0.00 | 0.19 | 0.16 | 93 | 1010.8 |
| 20260507095033 | 50 | 311 | 2.0 | 8.0 | 0.00 | 0.19 | 0.16 | 93 | 1011.0 |
| 20260507094532 | 50 | 311 | 3.0 | 9.0 | 0.00 | 0.19 | 0.16 | 93 | 1010.9 |
| 20260507094031 | 50 | 311 | 2.0 | 9.0 | 0.00 | 0.19 | 0.16 | 93 | 1010.9 |
| 20260507093531 | 50 | 311 | 2.0 | 9.0 | 0.00 | 0.19 | 0.16 | 93 | 1010.9 |
| 20260507093030 | 50 | 311 | 3.0 | 9.0 | 0.00 | 0.19 | 0.16 | 93 | 1011.0 |
| 20260507092533 | 50 | 311 | 2.0 | 11.0 | 0.00 | 0.19 | 0.16 | 93 | 1010.7 |
| 20260507092029 | 50 | 311 | 3.0 | 11.0 | 0.00 | 0.19 | 0.16 | 93 | 1010.7 |
| 20260507091540 | 50 | 311 | 3.0 | 9.0 | 0.00 | 0.19 | 0.16 | 93 | 1010.7 |
| 20260507091029 | 50 | 311 | 2.0 | 8.0 | 0.00 | 0.19 | 0.16 | 93 | 1010.8 |
| 20260507090529 | 50 | 311 | 3.0 | 8.0 | 0.00 | 0.19 | 0.16 | 93 | 1010.7 |
| 20260507090036 | 51 | 311 | 2.0 | 10.0 | 0.00 | 0.19 | 0.16 | 93 | 1011.0 |
| 20260507085527 | 51 | 311 | 3.0 | 8.0 | 0.00 | 0.19 | 0.16 | 93 | 1011.2 |
| 20260507085029 | 51 | 311 | 2.0 | 8.0 | 0.00 | 0.19 | 0.16 | 94 | 1011.1 |
| 20260507084528 | 51 | 311 | 3.0 | 11.0 | 0.00 | 0.19 | 0.16 | 94 | 1011.0 |
| 20260507084026 | 51 | 311 | 3.0 | 11.0 | 0.00 | 0.19 | 0.16 | 93 | 1010.6 |
| 20260507083526 | 51 | 310 | 1.0 | 10.0 | 0.01 | 0.19 | 0.16 | 93 | 1010.6 |
| 20260507083031 | 51 | 310 | 4.0 | 10.0 | 0.01 | 0.19 | 0.16 | 93 | 1010.5 |
| 20260507082525 | 51 | 310 | 2.0 | 9.0 | 0.01 | 0.19 | 0.16 | 93 | 1010.4 |
| 20260507082023 | 51 | 310 | 3.0 | 11.0 | 0.02 | 0.19 | 0.16 | 93 | 1010.4 |
| 20260507081524 | 51 | 309 | 4.0 | 12.0 | 0.02 | 0.19 | 0.16 | 93 | 1010.7 |
| 20260507081022 | 51 | 310 | 5.0 | 12.0 | 0.02 | 0.19 | 0.16 | 93 | 1010.4 |
| 20260507080522 | 51 | 310 | 3.0 | 13.0 | 0.02 | 0.19 | 0.16 | 93 | 1010.5 |
| 20260507080023 | 51 | 309 | 4.0 | 13.0 | 0.02 | 0.19 | 0.16 | 93 | 1010.6 |
| 20260507075521 | 52 | 309 | 4.0 | 14.0 | 0.02 | 0.19 | 0.16 | 93 | 1010.7 |
| 20260507075021 | 52 | 307 | 4.0 | 10.0 | 0.04 | 0.19 | 0.16 | 93 | 1010.7 |
| 20260507074519 | 52 | 307 | 5.0 | 10.0 | 0.06 | 0.19 | 0.16 | 93 | 1010.7 |
| 20260507074017 | 52 | 306 | 2.0 | 9.0 | 0.09 | 0.19 | 0.16 | 93 | 1010.6 |
| 20260507073517 | 52 | 307 | 3.0 | 12.0 | 0.13 | 0.18 | 0.15 | 93 | 1010.7 |
| 20260507073017 | 52 | 307 | 7.0 | 12.0 | 0.13 | 0.18 | 0.15 | 93 | 1010.8 |
| 20260507072520 | 52 | 306 | 3.0 | 14.0 | 0.13 | 0.18 | 0.15 | 92 | 1010.4 |
| 20260507072015 | 52 | 306 | 6.0 | 14.0 | 0.12 | 0.17 | 0.14 | 92 | 1010.6 |
| 20260507071515 | 52 | 307 | 5.0 | 13.0 | 0.12 | 0.17 | 0.14 | 92 | 1010.4 |
| 20260507071014 | 53 | 307 | 4.0 | 15.0 | 0.12 | 0.17 | 0.14 | 91 | 1010.3 |
| 20260507070513 | 53 | 306 | 4.0 | 14.0 | 0.12 | 0.17 | 0.14 | 91 | 1010.5 |
| 20260507070013 | 53 | 306 | 8.0 | 14.0 | 0.12 | 0.17 | 0.14 | 91 | 1010.5 |
| 20260507065510 | 53 | 307 | 3.0 | 9.0 | 0.12 | 0.17 | 0.14 | 90 | 1010.2 |
| 20260507065009 | 54 | 307 | 3.0 | 14.0 | 0.10 | 0.15 | 0.12 | 89 | 1010.3 |
| 20260507064507 | 54 | 307 | 8.0 | 17.0 | 0.08 | 0.13 | 0.10 | 88 | 1010.7 |
| 20260507064006 | 55 | 311 | 8.0 | 16.0 | 0.05 | 0.10 | 0.07 | 87 | 1010.7 |
| 20260507063505 | 55 | 315 | 8.0 | 14.0 | 0.00 | 0.05 | 0.02 | 86 | 1010.5 |
| 20260507063005 | 56 | 328 | 4.0 | 10.0 | 0.00 | 0.05 | 0.02 | 85 | 1009.6 |
| 20260507062502 | 56 | 328 | 4.0 | 11.0 | 0.00 | 0.05 | 0.02 | 85 | 1010.0 |
| 20260507062002 | 56 | 329 | 5.0 | 11.0 | 0.00 | 0.05 | 0.02 | 84 | 1010.1 |
| 20260507061502 | 56 | 331 | 5.0 | 14.0 | 0.00 | 0.05 | 0.02 | 83 | 1008.8 |
| 20260507061059 | 57 | 329 | 5.0 | 16.0 | 0.00 | 0.05 | 0.02 | 83 | 1009.6 |
| 20260507060558 | 57 | 306 | 9.0 | 16.0 | 0.00 | 0.05 | 0.02 | 82 | 1010.3 |
| 20260507055557 | 57 | 309 | 4.0 | 12.0 | 0.00 | 0.05 | 0.02 | 83 | 1009.8 |
| 20260507055054 | 57 | 309 | 5.0 | 16.0 | 0.00 | 0.05 | 0.02 | 83 | 1009.7 |
| 20260507054554 | 57 | 309 | 5.0 | 16.0 | 0.01 | 0.05 | 0.02 | 84 | 1009.7 |
| 20260507054053 | 57 | 303 | 4.0 | 10.0 | 0.01 | 0.05 | 0.02 | 84 | 1009.6 |
| 20260507053555 | 57 | 303 | 4.0 | 10.0 | 0.01 | 0.05 | 0.02 | 85 | 1009.3 |
| 20260507053052 | 57 | 302 | 2.0 | 11.0 | 0.01 | 0.05 | 0.02 | 85 | 1009.3 |
| 20260507052551 | 57 | 302 | 3.0 | 11.0 | 0.01 | 0.05 | 0.02 | 85 | 1009.5 |
| 20260507052050 | 57 | 302 | 3.0 | 10.0 | 0.01 | 0.05 | 0.02 | 85 | 1009.4 |
| 20260507051550 | 57 | 302 | 4.0 | 10.0 | 0.01 | 0.05 | 0.02 | 85 | 1009.7 |
| 20260507051048 | 58 | 302 | 4.0 | 12.0 | 0.01 | 0.05 | 0.02 | 86 | 1009.8 |
| 20260507050549 | 57 | 301 | 6.0 | 12.0 | 0.01 | 0.05 | 0.02 | 86 | 1009.7 |
| 20260507050047 | 57 | 301 | 6.0 | 10.0 | 0.02 | 0.05 | 0.02 | 86 | 1009.6 |
| 20260507045546 | 57 | 300 | 5.0 | 10.0 | 0.02 | 0.05 | 0.02 | 87 | 1009.6 |
| 20260507045045 | 57 | 300 | 4.0 | 9.0 | 0.02 | 0.05 | 0.02 | 87 | 1009.6 |
| 20260507044544 | 57 | 300 | 4.0 | 6.0 | 0.01 | 0.04 | 0.01 | 88 | 1010.0 |
| 20260507044043 | 58 | 300 | 1.0 | 4.0 | 0.01 | 0.04 | 0.01 | 88 | 1009.9 |
| 20260507043542 | 57 | 300 | 1.0 | 5.0 | 0.01 | 0.04 | 0.01 | 88 | 1010.2 |
| 20260507043043 | 58 | 300 | 2.0 | 6.0 | 0.01 | 0.04 | 0.01 | 88 | 1010.3 |
| 20260507042542 | 57 | 300 | 3.0 | 6.0 | 0.01 | 0.04 | 0.01 | 88 | 1010.6 |
| 20260507042042 | 58 | 300 | 0.0 | 10.0 | 0.01 | 0.04 | 0.01 | 88 | 1010.4 |
| 20260507041541 | 58 | 300 | 4.0 | 10.0 | 0.01 | 0.04 | 0.01 | 89 | 1010.6 |
| 20260507041042 | 58 | 300 | 6.0 | 11.0 | 0.01 | 0.04 | 0.01 | 90 | 1010.6 |
| 20260507040540 | 58 | 300 | 3.0 | 11.0 | 0.01 | 0.04 | 0.01 | 90 | 1010.3 |
| 20260507040041 | 58 | 299 | 2.0 | 8.0 | 0.00 | 0.03 | 0.03 | 91 | 1010.0 |
| 20260507035536 | 59 | 299 | 2.0 | 8.0 | 0.00 | 0.03 | 0.03 | 92 | 1009.9 |
| 20260507035036 | 58 | 299 | 2.0 | 9.0 | 0.00 | 0.03 | 0.03 | 92 | 1010.1 |
| 20260507034538 | 58 | 299 | 4.0 | 9.0 | 0.00 | 0.03 | 0.03 | 93 | 1010.1 |
| 20260507034035 | 59 | 299 | 3.0 | 10.0 | 0.00 | 0.03 | 0.03 | 93 | 1010.1 |
| 20260507033536 | 59 | 299 | 2.0 | 10.0 | 0.00 | 0.03 | 0.03 | 93 | 1009.8 |
| 20260507033035 | 58 | 299 | 3.0 | 10.0 | 0.00 | 0.03 | 0.03 | 93 | 1010.0 |
| 20260507032535 | 58 | 299 | 5.0 | 11.0 | 0.00 | 0.03 | 0.03 | 93 | 1009.9 |
| 20260507032033 | 58 | 297 | 2.0 | 7.0 | 0.00 | 0.03 | 0.03 | 93 | 1009.9 |
| 20260507031533 | 58 | 298 | 2.0 | 7.0 | 0.00 | 0.03 | 0.03 | 93 | 1009.8 |
| 20260507031034 | 58 | 298 | 1.0 | 5.0 | 0.00 | 0.03 | 0.03 | 93 | 1009.6 |
| 20260507030532 | 57 | 298 | 1.0 | 5.0 | 0.00 | 0.03 | 0.03 | 93 | 1009.7 |
| 20260507030031 | 57 | 297 | 1.0 | 7.0 | 0.00 | 0.03 | 0.03 | 93 | 1009.9 |
| 20260507025529 | 57 | 297 | 1.0 | 7.0 | 0.00 | 0.03 | 0.03 | 94 | 1009.7 |
| 20260507025029 | 56 | 297 | 1.0 | 11.0 | 0.00 | 0.03 | 0.03 | 94 | 1009.9 |
| 20260507024529 | 56 | 297 | 6.0 | 14.0 | 0.00 | 0.03 | 0.03 | 94 | 1010.1 |
| 20260507024030 | 55 | 299 | 8.0 | 14.0 | 0.00 | 0.03 | 0.03 | 94 | 1010.4 |
| 20260507023530 | 55 | 247 | 6.0 | 10.0 | 0.00 | 0.03 | 0.03 | 94 | 1009.9 |
| 20260507023029 | 55 | 247 | 6.0 | 10.0 | 0.00 | 0.03 | 0.03 | 93 | 1009.8 |
| 20260507022529 | 55 | 247 | 4.0 | 8.0 | 0.00 | 0.03 | 0.03 | 94 | 1009.9 |
| 20260507022029 | 55 | 246 | 2.0 | 7.0 | 0.00 | 0.03 | 0.03 | 93 | 1009.9 |
| 20260507021533 | 55 | 246 | 3.0 | 7.0 | 0.00 | 0.03 | 0.03 | 93 | 1010.0 |
| 20260507021030 | 55 | 246 | 2.0 | 7.0 | 0.00 | 0.03 | 0.03 | 94 | 1010.0 |
| 20260507020529 | 55 | 247 | 3.0 | 8.0 | 0.00 | 0.03 | 0.03 | 93 | 1009.8 |
| 20260507020031 | 55 | 246 | 4.0 | 10.0 | 0.00 | 0.03 | 0.03 | 93 | 1010.0 |
| 20260507015527 | 55 | 247 | 5.0 | 10.0 | 0.00 | 0.03 | 0.03 | 93 | 1010.2 |
| 20260507015027 | 55 | 246 | 5.0 | 9.0 | 0.00 | 0.03 | 0.03 | 93 | 1010.4 |
| 20260507014531 | 55 | 247 | 3.0 | 9.0 | 0.00 | 0.03 | 0.03 | 94 | 1010.2 |
| 20260507014027 | 55 | 246 | 4.0 | 7.0 | 0.00 | 0.03 | 0.03 | 94 | 1010.2 |
| 20260507013527 | 55 | 246 | 3.0 | 7.0 | 0.00 | 0.03 | 0.03 | 93 | 1010.2 |
| 20260507013042 | 55 | 246 | 2.0 | 7.0 | 0.00 | 0.03 | 0.03 | 93 | 1010.1 |
| 20260507012526 | 55 | 246 | 2.0 | 7.0 | 0.00 | 0.03 | 0.03 | 93 | 1009.9 |
| 20260507012026 | 55 | 246 | 4.0 | 7.0 | 0.00 | 0.03 | 0.03 | 93 | 1010.0 |
| 20260507011526 | 55 | 246 | 2.0 | 8.0 | 0.00 | 0.03 | 0.03 | 93 | 1009.9 |
| 20260507011025 | 55 | 246 | 3.0 | 8.0 | 0.00 | 0.03 | 0.03 | 93 | 1009.9 |
| 20260507010525 | 55 | 246 | 4.0 | 8.0 | 0.00 | 0.03 | 0.03 | 93 | 1010.1 |
| 20260507010032 | 55 | 246 | 3.0 | 7.0 | 0.00 | 0.03 | 0.03 | 93 | 1010.0 |
| 20260507005523 | 55 | 246 | 2.0 | 7.0 | 0.00 | 0.03 | 0.03 | 93 | 1010.0 |
| 20260507005023 | 55 | 246 | 2.0 | 5.0 | 0.00 | 0.03 | 0.03 | 93 | 1010.0 |
| 20260507004524 | 55 | 246 | 2.0 | 7.0 | 0.00 | 0.03 | 0.03 | 93 | 1009.9 |
| 20260507004024 | 55 | 246 | 4.0 | 8.0 | 0.00 | 0.03 | 0.03 | 93 | 1010.0 |
| 20260507003524 | 55 | 246 | 3.0 | 10.0 | 0.00 | 0.03 | 0.03 | 93 | 1009.9 |
| 20260507003031 | 55 | 246 | 5.0 | 10.0 | 0.00 | 0.03 | 0.03 | 93 | 1010.2 |
| 20260507002523 | 55 | 246 | 7.0 | 10.0 | 0.00 | 0.03 | 0.03 | 93 | 1010.0 |
| 20260507002023 | 55 | 244 | 7.0 | 11.0 | 0.00 | 0.03 | 0.03 | 93 | 1010.0 |
| 20260507001523 | 55 | 244 | 6.0 | 12.0 | 0.00 | 0.03 | 0.03 | 93 | 1010.1 |
| 20260507001023 | 55 | 242 | 7.0 | 12.0 | 0.00 | 0.03 | 0.03 | 93 | 1010.1 |
| 20260507000523 | 55 | 248 | 7.0 | 12.0 | 0.00 | 0.03 | 0.03 | 93 | 1010.1 |
| 20260507000023 | 55 | 247 | 6.0 | 11.0 | 0.00 | 0.03 | 0.03 | 93 | 1010.2 |
| 20260506235525 | 55 | 246 | 6.0 | 11.0 | 0.00 | 0.03 | 0.03 | 93 | 1010.1 |
| 20260506235022 | 55 | 245 | 6.0 | 10.0 | 0.00 | 0.03 | 0.03 | 93 | 1009.9 |
| 20260506234522 | 55 | 241 | 4.0 | 10.0 | 0.00 | 0.03 | 0.03 | 93 | 1009.6 |
| 20260506234022 | 55 | 242 | 5.0 | 10.0 | 0.00 | 0.03 | 0.03 | 93 | 1010.0 |
| 20260506233521 | 56 | 238 | 5.0 | 11.0 | 0.00 | 0.03 | 0.03 | 93 | 1009.9 |
| 20260506233020 | 56 | 242 | 7.0 | 12.0 | 0.00 | 0.03 | 0.03 | 94 | 1009.9 |
| 20260506232519 | 56 | 243 | 7.0 | 12.0 | 0.00 | 0.03 | 0.03 | 93 | 1009.7 |
| 20260506232020 | 56 | 248 | 8.0 | 13.0 | 0.00 | 0.03 | 0.03 | 94 | 1009.6 |
| 20260506231520 | 55 | 244 | 8.0 | 12.0 | 0.00 | 0.03 | 0.03 | 94 | 1009.6 |
| 20260506231019 | 55 | 209 | 7.0 | 12.0 | 0.00 | 0.03 | 0.03 | 94 | 1009.5 |
| 20260506230519 | 55 | 251 | 8.0 | 10.0 | 0.00 | 0.03 | 0.03 | 94 | 1009.4 |
| 20260506230020 | 55 | 264 | 5.0 | 14.0 | 0.00 | 0.03 | 0.03 | 94 | 1009.3 |
| 20260506225518 | 55 | 221 | 4.0 | 14.0 | 0.00 | 0.03 | 0.03 | 94 | 1009.3 |
| 20260506225018 | 55 | 256 | 8.0 | 12.0 | 0.00 | 0.03 | 0.03 | 94 | 1009.6 |
| 20260506224519 | 55 | 230 | 6.0 | 12.0 | 0.00 | 0.03 | 0.03 | 94 | 1009.4 |
| 20260506224018 | 55 | 252 | 7.0 | 13.0 | 0.00 | 0.03 | 0.03 | 94 | 1009.6 |
| 20260506223518 | 55 | 240 | 9.0 | 14.0 | 0.00 | 0.03 | 0.03 | 94 | 1009.6 |
| 20260506223017 | 55 | 219 | 8.0 | 14.0 | 0.00 | 0.03 | 0.03 | 94 | 1009.4 |
| 20260506222518 | 55 | 231 | 9.0 | 15.0 | 0.00 | 0.03 | 0.03 | 94 | 1009.4 |
| 20260506222017 | 55 | 236 | 9.0 | 15.0 | 0.00 | 0.03 | 0.03 | 93 | 1009.5 |
| 20260506221517 | 55 | 251 | 9.0 | 16.0 | 0.00 | 0.03 | 0.03 | 93 | 1009.6 |
| 20260506221017 | 55 | 238 | 9.0 | 16.0 | 0.00 | 0.03 | 0.03 | 93 | 1009.6 |
| 20260506220518 | 55 | 234 | 8.0 | 14.0 | 0.00 | 0.03 | 0.03 | 93 | 1009.4 |
| 20260506220017 | 55 | 234 | 8.0 | 14.0 | 0.00 | 0.03 | 0.03 | 93 | 1009.6 |
| 20260506215515 | 55 | 246 | 9.0 | 14.0 | 0.00 | 0.03 | 0.03 | 93 | 1009.5 |
| 20260506215019 | 56 | 233 | 9.0 | 16.0 | 0.00 | 0.03 | 0.03 | 94 | 1009.3 |
| 20260506214531 | 56 | 254 | 9.0 | 15.0 | 0.00 | 0.03 | 0.03 | 94 | 1009.2 |
| 20260506214015 | 56 | 210 | 9.0 | 15.0 | 0.00 | 0.03 | 0.03 | 94 | 1009.1 |
| 20260506213518 | 55 | 234 | 8.0 | 15.0 | 0.00 | 0.03 | 0.03 | 94 | 1009.0 |
| 20260506213019 | 55 | 241 | 9.0 | 17.0 | 0.00 | 0.03 | 0.03 | 94 | 1009.0 |
| 20260506212515 | 55 | 143 | 8.0 | 17.0 | 0.00 | 0.03 | 0.03 | 94 | 1008.9 |
| 20260506212015 | 56 | 232 | 9.0 | 16.0 | 0.00 | 0.03 | 0.03 | 94 | 1009.0 |
| 20260506211515 | 55 | 234 | 5.0 | 18.0 | 0.00 | 0.03 | 0.03 | 94 | 1008.8 |
| 20260506211015 | 55 | 218 | 8.0 | 19.0 | 0.00 | 0.03 | 0.03 | 94 | 1008.8 |
| 20260506210515 | 55 | 201 | 13.0 | 21.0 | 0.00 | 0.03 | 0.03 | 94 | 1008.7 |
| 20260506210019 | 55 | 192 | 12.0 | 20.0 | 0.00 | 0.03 | 0.03 | 94 | 1008.7 |
| 20260506205513 | 55 | 202 | 14.0 | 22.0 | 0.00 | 0.03 | 0.03 | 94 | 1008.8 |
| 20260506205014 | 55 | 212 | 14.0 | 22.0 | 0.00 | 0.03 | 0.03 | 94 | 1008.8 |
| 20260506204513 | 56 | 190 | 13.0 | 22.0 | 0.00 | 0.03 | 0.03 | 94 | 1008.8 |
| 20260506204013 | 56 | 196 | 15.0 | 22.0 | 0.00 | 0.03 | 0.03 | 94 | 1008.8 |
| 20260506203512 | 56 | 187 | 10.0 | 20.0 | 0.00 | 0.03 | 0.03 | 94 | 1008.8 |
| 20260506203012 | 56 | 202 | 7.0 | 14.0 | 0.00 | 0.03 | 0.03 | 94 | 1009.0 |
| 20260506202511 | 56 | 213 | 7.0 | 15.0 | 0.00 | 0.03 | 0.03 | 94 | 1009.0 |